Alamogordo, NM

3:09 PM MST on November 11, 2019 (GMT -0700)
Alamogordo-White Sands Regional

Weather History for KALM - September, 2019

Change the Weather History Date:

Sunday, September 8, 2019

  Actual Average Record
Temperature  
Mean Temperature 76 °F -  
Max Temperature 89 °F 88 °F 98 °F (1959)
Min Temperature 64 °F 60 °F 49 °F (1953)
Cooling Degree Days 12    
Growing Degree Days 26 (Base 50)    
Moisture  
Dew Point 57 °F    
Average Humidity 57    
Maximum Humidity 100    
Minimum Humidity 26    
Precipitation  
Precipitation 0.79 in - - ()
Sea Level Pressure  
Sea Level Pressure 30.01 in    
Wind  
Wind Speed 8 mph ()    
Max Wind Speed 34 mph    
Max Gust Speed 50 mph    
Visibility 9.5 miles    
Events Rain , Thunderstorm    
Averages and records for this station are not official NWS values.
T = Trace of Precipitation, MM = Missing Value Source: Averaged Metar Reports

Daily Weather History Graph

Daily Weather History Graph

Search for Another Location

Airport or City:

Astronomy

Sep. 08, 2019 Rise Set
Actual Time 6:43 AM MDT 7:19 PM MDT
Civil Twilight 6:18 AM MDT 7:44 PM MDT
Nautical Twilight 5:48 AM MDT 8:13 PM MDT
Astronomical Twilight 5:18 AM MDT 8:43 PM MDT
Moon 4:15 PM MDT (9/8) 1:40 AM MDT (9/8)
Length of Visible Light 13h 26m
Length of Day
12h 36m
Waxing Gibbous, 75% of the Moon is Illuminated
Sep 8
Waxing Gibbous
Sep 13
Full
Sep 21
Last Quarter
Sep 28
New
Oct 5
First Quarter

Hourly Weather History & Observations

Time (MDT) Temp. Heat Index Dew Point Humidity Pressure Visibility Wind Dir Wind Speed Gust Speed Precip Events Conditions
12:15 AM 77.0 °F - 53.6 °F 44% 30.10 in 10.0 mi WSW 12.7 mph - N/A Thunderstorm Overcast
12:35 AM 75.2 °F - 53.6 °F 47% 30.11 in 10.0 mi West 12.7 mph 16.1 mph N/A Thunderstorm Overcast
12:55 AM 71.6 °F - 59.0 °F 64% 30.12 in 8.0 mi ESE 4.6 mph - N/A Rain , Thunderstorm Light Rain
1:15 AM 71.6 °F - 59.0 °F 64% 30.13 in 9.0 mi ESE 8.1 mph - N/A Rain , Thunderstorm Light Rain
1:35 AM 69.8 °F - 59.0 °F 68% 30.12 in 10.0 mi ENE 10.4 mph - N/A Thunderstorm Partly Cloudy
1:55 AM 68.0 °F - 62.6 °F 83% 30.11 in 9.0 mi NNE 10.4 mph - N/A   Mostly Cloudy
2:15 AM 68.0 °F - 60.8 °F 78% 30.10 in 5.0 mi ENE 16.1 mph 20.7 mph 0.02 in Rain Light Rain
2:35 AM 66.2 °F - 59.0 °F 78% 30.08 in 7.0 mi ENE 16.1 mph 21.9 mph 0.03 in   Mostly Cloudy
2:55 AM 66.2 °F - 59.0 °F 78% 30.06 in 10.0 mi NE 12.7 mph 17.3 mph 0.03 in   Mostly Cloudy
3:15 AM 68.0 °F - 59.0 °F 73% 30.04 in 10.0 mi NNE 12.7 mph - N/A   Partly Cloudy
3:35 AM 69.8 °F - 59.0 °F 68% 30.02 in 10.0 mi NNE 12.7 mph - N/A   Clear
3:55 AM 69.8 °F - 59.0 °F 68% 30.02 in 10.0 mi NE 8.1 mph - N/A   Partly Cloudy
4:15 AM 68.0 °F - 59.0 °F 73% 30.02 in 10.0 mi SSE 6.9 mph - N/A   Clear
4:35 AM 68.0 °F - 59.0 °F 73% 30.02 in 10.0 mi South 6.9 mph - N/A   Clear
4:55 AM 68.0 °F - 62.6 °F 83% 30.02 in 10.0 mi South 10.4 mph - N/A   Clear
5:15 AM 66.2 °F - 62.6 °F 88% 30.03 in 10.0 mi South 6.9 mph - N/A   Clear
5:35 AM 66.2 °F - 62.6 °F 88% 30.04 in 10.0 mi South 6.9 mph - N/A   Clear
5:55 AM 66.2 °F - 62.6 °F 88% 30.04 in 10.0 mi SSE 4.6 mph - N/A   Clear
6:15 AM 66.2 °F - 62.6 °F 88% 30.04 in 10.0 mi SE 4.6 mph - N/A   Clear
6:55 AM 66.2 °F - 64.4 °F 94% 30.05 in 10.0 mi Calm Calm - N/A   Clear
7:15 AM 64.4 °F - 64.4 °F 100% 30.05 in 10.0 mi SSE 5.8 mph - N/A   Clear
7:35 AM 66.2 °F - 64.4 °F 94% 30.06 in 10.0 mi ESE 3.5 mph - N/A   Clear
7:55 AM 66.2 °F - 64.4 °F 94% 30.06 in 10.0 mi North - - N/A   Clear
8:15 AM 68.0 °F - 64.4 °F 88% 30.06 in 10.0 mi Calm Calm - N/A   Clear
8:35 AM 71.6 °F - 62.6 °F 73% 30.06 in 10.0 mi East 4.6 mph - N/A   Clear
8:55 AM 73.4 °F - 59.0 °F 61% 30.07 in 10.0 mi Calm Calm - N/A   Clear
9:15 AM 75.2 °F - 59.0 °F 57% 30.07 in 10.0 mi Calm Calm - N/A   Clear
9:35 AM 77.0 °F - 57.2 °F 50% 30.07 in 10.0 mi SSE 3.5 mph - N/A   Partly Cloudy
9:55 AM 75.2 °F - 57.2 °F 53% 30.07 in 10.0 mi SW 4.6 mph - N/A   Clear
10:15 AM 75.2 °F - 57.2 °F 53% 30.07 in 10.0 mi SW 3.5 mph - N/A   Scattered Clouds
10:35 AM 75.2 °F - 59.0 °F 57% 30.07 in 10.0 mi Calm Calm - N/A   Mostly Cloudy
10:55 AM 75.2 °F - 59.0 °F 57% 30.07 in 10.0 mi SW 3.5 mph - N/A   Scattered Clouds
11:15 AM 75.2 °F - 59.0 °F 57% 30.07 in 10.0 mi Calm Calm - N/A   Scattered Clouds
11:35 AM 75.2 °F - 59.0 °F 57% 30.06 in 10.0 mi Calm Calm - N/A   Partly Cloudy
11:55 AM 77.0 °F - 59.0 °F 54% 30.06 in 10.0 mi Calm Calm - N/A   Clear
12:15 PM 80.6 °F 81.1 °F 59.0 °F 48% 30.05 in 10.0 mi South 3.5 mph - N/A   Clear
12:35 PM 82.4 °F 82.0 °F 57.2 °F 42% 30.04 in 9.0 mi ESE 4.6 mph - N/A   Clear
12:55 PM 84.2 °F 83.0 °F 55.4 °F 37% 30.03 in 10.0 mi SSE 4.6 mph - N/A   Clear
1:15 PM 84.2 °F 83.5 °F 57.2 °F 40% 30.02 in 10.0 mi SSE 4.6 mph - N/A   Clear
1:35 PM 86.0 °F 84.5 °F 55.4 °F 35% 30.01 in 10.0 mi SW 6.9 mph - N/A   Clear
1:55 PM 86.0 °F 84.5 °F 55.4 °F 35% 30.00 in 10.0 mi SSW 9.2 mph - N/A   Clear
2:15 PM 86.0 °F 84.2 °F 53.6 °F 33% 29.99 in 10.0 mi West 5.8 mph - N/A   Clear
2:35 PM 87.8 °F - 51.8 °F 29% 29.98 in 10.0 mi West 5.8 mph - N/A   Clear
2:55 PM 87.8 °F - 50.0 °F 27% 29.97 in 10.0 mi SSE 8.1 mph - N/A   Clear
3:15 PM 89.6 °F - 50.0 °F 26% 29.96 in 10.0 mi SSE 6.9 mph - N/A   Clear
3:35 PM 89.6 °F - 50.0 °F 26% 29.95 in 10.0 mi SSE 4.6 mph - N/A   Clear
3:55 PM 89.6 °F - 50.0 °F 26% 29.94 in 10.0 mi Calm Calm - N/A   Clear
4:15 PM 89.6 °F - 50.0 °F 26% 29.93 in 10.0 mi East 4.6 mph - N/A   Clear
4:55 PM 89.6 °F - 50.0 °F 26% 29.92 in 10.0 mi South 3.5 mph - N/A   Clear
5:15 PM 89.6 °F - 50.0 °F 26% 29.90 in 10.0 mi South 9.2 mph - N/A   Clear
5:35 PM 89.6 °F - 51.8 °F 27% 29.90 in 10.0 mi ESE 3.5 mph - N/A   Clear
5:55 PM 89.6 °F - 51.8 °F 27% 29.90 in 10.0 mi ESE 3.5 mph - N/A   Clear
6:15 PM 89.6 °F - 51.8 °F 27% 29.90 in 10.0 mi SSE 8.1 mph - N/A   Clear
6:35 PM 87.8 °F 85.7 °F 53.6 °F 31% 29.90 in 10.0 mi SSE 8.1 mph - N/A Thunderstorm Clear
6:55 PM 86.0 °F - 51.8 °F 31% 29.90 in 10.0 mi SSE 5.8 mph - N/A   Clear
7:15 PM 84.2 °F 82.8 °F 53.6 °F 35% 29.90 in 10.0 mi SE 9.2 mph - N/A   Clear
7:35 PM 82.4 °F 81.4 °F 53.6 °F 37% 29.90 in 10.0 mi SE 8.1 mph - N/A   Clear
7:55 PM 82.4 °F 81.4 °F 53.6 °F 37% 29.91 in 10.0 mi SSE 6.9 mph - N/A   Mostly Cloudy
8:15 PM 82.4 °F 81.4 °F 53.6 °F 37% 29.91 in 10.0 mi SSE 8.1 mph - N/A Thunderstorm Mostly Cloudy
8:35 PM 82.4 °F 81.4 °F 53.6 °F 37% 29.92 in 10.0 mi South 10.4 mph - N/A Thunderstorm Scattered Clouds
8:55 PM 77.0 °F - 57.2 °F 50% 29.93 in 8.0 mi NW 34.5 mph 44.9 mph N/A Thunderstorm Mostly Cloudy
9:15 PM 68.0 °F - 62.6 °F 83% 29.98 in 3.0 mi NNW 18.4 mph 32.2 mph 0.14 in Rain , Thunderstorm Heavy Thunderstorms and Rain
9:35 PM 66.2 °F - 62.6 °F 88% 30.02 in 0.5 mi ENE 9.2 mph 49.5 mph 0.67 in Rain , Thunderstorm Heavy Thunderstorms and Rain
9:55 PM 66.2 °F - 62.6 °F 88% 30.02 in 10.0 mi ESE 13.8 mph 18.4 mph 0.75 in Rain , Thunderstorm Light Thunderstorms and Rain
10:15 PM 66.2 °F - 62.6 °F 88% 30.01 in 9.0 mi SSE 17.3 mph 20.7 mph N/A Thunderstorm Thunderstorm
10:35 PM 68.0 °F - 59.0 °F 73% 30.00 in 10.0 mi SE 17.3 mph - N/A Rain , Thunderstorm Light Rain
10:55 PM 71.6 °F - 57.2 °F 60% 30.00 in 10.0 mi SE 17.3 mph 24.2 mph N/A Thunderstorm Thunderstorm
11:35 PM 73.4 °F - 57.2 °F 57% 30.01 in 10.0 mi South 12.7 mph 21.9 mph N/A   Mostly Cloudy
11:55 PM 73.4 °F - 59.0 °F 61% 30.02 in 10.0 mi South 10.4 mph - 0.01 in Thunderstorm Overcast